星链-2705 (STARLINK-2705 )

导读 | 星芒AI

STARLINK-2705 是 SpaceX 星链计划中的一颗低轨通信卫星,属于第 27 批部署的星链卫星群。该卫星于 2023 年发射,旨在为全球用户提供高速互联网服务。它运行在约 550 公里的近地轨道,采用先进的通信技术,支持宽带接入和低延迟数据传输。作为星链网络的一部分,STARLINK-2705 有助于扩大卫星互联网的覆盖范围,特别是在偏远和网络基础设施薄弱的地区。

基本信息
目录编号:
48672
目录名称:
STARLINK-2705
国际标识:
2021-044AL
轨道中心:
EARTH
卫星名称:
星链-2705
卫星全名:
星链-2705 (STARLINK-2705 )
卫星状态:
在轨 (已飞行1667 天)
发射日期:
2021-05-26 UTC
国别 :
美国 (US)
星等 :
--
轨道信息
数据来源 国际轨道数据 AOE轨道数据
星历时间 2025-12-18T01:59:14+0800
17小时前
查看轨道信息
2025-12-12T20:00:00+0800
5天前
查看轨道信息
半长轴 6925.321km 6925.397km
偏心率 0.000116 0.0001527
轨道倾角 53.056° 53.053°
近地点辐角 93.660° 81.175°
升交点赤经 119.463° 143.028°
平近点角 266.452° 235.199°
近地点 546.382km 546.204km
远地点 547.99km 548.32km
周期 95.592分钟 95.593分钟
每日圈数 15.064091 15.063845
详细信息
固有亮度:
5
最大亮度:
2.5
卫星平台:
Starlink V1.0
覆盖范围:
全球
运营商:
太空探索技术公司
运营商所在国:
美国
制造商(研发单位):
太空探索技术公司
制造商所在国:
美国
使用方式:
暂无
卫星简介
星链(Starlink)计划是由太空探索技术公司(SpaceX)提出的一个巨型低轨卫星互联网星座项目,计划在2019年至2024年间在太空搭建由约1.2万颗卫星组成的“星链”网络,其中1584颗将部署在地球上空550千米处的近地轨道,并从2020年开始工作。该卫星仍在工作。
2D轨道图
3D轨道图
轨道高度分析图
轨道倾角分析图
轨道综合分析图
查看轨道综合分析图